Year,Month,Day,Hour,Minute,Value (Times are PST for windspeed in km/hr)
2012,01,22,00,00,4.70
2012,01,22,00,01,3.90
2012,01,22,00,02,6.10
2012,01,22,00,03,8.40
2012,01,22,00,04,11.30
2012,01,22,00,05,11.30
2012,01,22,00,06,16.00
2012,01,22,00,07,10.80
2012,01,22,00,08,15.50
2012,01,22,00,09,12.70
2012,01,22,00,10,12.90
2012,01,22,00,11,12.90
2012,01,22,00,12,13.00
2012,01,22,00,13,6.10
2012,01,22,00,14,4.70
2012,01,22,00,15,4.70
2012,01,22,00,16,7.00
2012,01,22,00,17,6.90
2012,01,22,00,18,6.40
2012,01,22,00,19,6.00
2012,01,22,00,20,6.40
2012,01,22,00,21,6.30
2012,01,22,00,22,7.90
2012,01,22,00,23,12.60
2012,01,22,00,24,6.90
2012,01,22,00,25,5.80
2012,01,22,00,26,6.00
2012,01,22,00,27,6.30
2012,01,22,00,28,4.90
2012,01,22,00,29,5.90
2012,01,22,00,30,7.10
2012,01,22,00,31,7.70
2012,01,22,00,32,9.30
2012,01,22,00,33,13.40
2012,01,22,00,34,15.40
2012,01,22,00,35,15.60
2012,01,22,00,36,8.40
2012,01,22,00,37,6.20
2012,01,22,00,38,7.10
2012,01,22,00,39,6.40
2012,01,22,00,40,5.20
2012,01,22,00,41,4.80
2012,01,22,00,42,4.00
2012,01,22,00,43,6.30
2012,01,22,00,44,9.60
2012,01,22,00,45,5.80
2012,01,22,00,46,5.30
2012,01,22,00,47,6.90
2012,01,22,00,48,7.30
2012,01,22,00,49,4.80
2012,01,22,00,50,5.40
2012,01,22,00,51,4.70
2012,01,22,00,52,6.20
2012,01,22,00,53,5.60
2012,01,22,00,54,9.90
2012,01,22,00,55,4.10
2012,01,22,00,56,7.10
2012,01,22,00,57,5.00
2012,01,22,00,58,5.00
2012,01,22,00,59,7.70
2012,01,22,01,00,6.70
2012,01,22,01,01,5.50
2012,01,22,01,02,5.50
2012,01,22,01,03,7.60
2012,01,22,01,04,3.40
2012,01,22,01,05,4.60
2012,01,22,01,06,6.20
2012,01,22,01,07,5.70
2012,01,22,01,08,8.70
2012,01,22,01,09,5.60
2012,01,22,01,10,4.70
2012,01,22,01,11,2.80
2012,01,22,01,12,3.00
2012,01,22,01,13,3.10
2012,01,22,01,14,3.90
2012,01,22,01,15,5.10
2012,01,22,01,16,7.90
2012,01,22,01,17,6.40
2012,01,22,01,18,5.10
2012,01,22,01,19,5.60
2012,01,22,01,20,6.70
2012,01,22,01,21,6.80
2012,01,22,01,22,9.30
2012,01,22,01,23,7.80
2012,01,22,01,24,8.80
2012,01,22,01,25,10.90
2012,01,22,01,26,12.30
2012,01,22,01,27,11.80
2012,01,22,01,28,12.00
2012,01,22,01,29,11.90
2012,01,22,01,30,12.50
2012,01,22,01,31,13.90
2012,01,22,01,32,13.80
2012,01,22,01,33,15.50
2012,01,22,01,34,13.90
2012,01,22,01,35,14.00
2012,01,22,01,36,14.20
2012,01,22,01,37,12.80
2012,01,22,01,38,12.10
2012,01,22,01,39,7.00
2012,01,22,01,40,7.20
2012,01,22,01,41,5.10
2012,01,22,01,42,6.00
2012,01,22,01,43,6.00
2012,01,22,01,44,7.60
2012,01,22,01,45,8.10
2012,01,22,01,46,6.60
2012,01,22,01,47,4.60
2012,01,22,01,48,6.40
2012,01,22,01,49,5.90
2012,01,22,01,50,3.30
2012,01,22,01,51,4.10
2012,01,22,01,52,4.30
2012,01,22,01,53,4.70
2012,01,22,01,54,4.30
2012,01,22,01,55,6.80
2012,01,22,01,56,4.70
2012,01,22,01,57,7.30
2012,01,22,01,58,8.90
2012,01,22,01,59,6.40
2012,01,22,02,00,7.20
2012,01,22,02,01,5.10
2012,01,22,02,02,5.00
2012,01,22,02,03,10.00
2012,01,22,02,04,8.40
2012,01,22,02,05,13.10
2012,01,22,02,06,10.90
2012,01,22,02,07,10.10
2012,01,22,02,08,7.20
2012,01,22,02,09,12.20
2012,01,22,02,10,8.50
2012,01,22,02,11,11.30
2012,01,22,02,12,10.40
2012,01,22,02,13,13.30
2012,01,22,02,14,12.60
2012,01,22,02,15,11.60
2012,01,22,02,16,10.30
2012,01,22,02,17,9.40
2012,01,22,02,18,10.70
2012,01,22,02,19,10.60
2012,01,22,02,20,10.40
2012,01,22,02,21,11.00
2012,01,22,02,22,9.70
2012,01,22,02,23,8.50
2012,01,22,02,24,8.30
2012,01,22,02,25,8.60
2012,01,22,02,26,6.50
2012,01,22,02,27,11.10
2012,01,22,02,28,12.40
2012,01,22,02,29,10.80
2012,01,22,02,30,7.80
2012,01,22,02,31,12.50
2012,01,22,02,32,10.50
2012,01,22,02,33,10.50
2012,01,22,02,34,12.00
2012,01,22,02,35,8.90
2012,01,22,02,36,7.20
2012,01,22,02,37,10.90
2012,01,22,02,38,15.40
2012,01,22,02,39,7.30
2012,01,22,02,40,6.40
2012,01,22,02,41,6.50
2012,01,22,02,42,7.30
2012,01,22,02,43,9.30
2012,01,22,02,44,7.00
2012,01,22,02,45,10.90
2012,01,22,02,46,3.90
2012,01,22,02,47,6.00
2012,01,22,02,48,7.40
2012,01,22,02,49,6.10
2012,01,22,02,50,8.60
2012,01,22,02,51,9.90
2012,01,22,02,52,8.90
2012,01,22,02,53,5.90
2012,01,22,02,54,10.20
2012,01,22,02,55,10.40
2012,01,22,02,56,8.90
2012,01,22,02,57,8.20
2012,01,22,02,58,8.40
2012,01,22,02,59,9.00
2012,01,22,03,00,9.80
2012,01,22,03,01,8.70
2012,01,22,03,02,9.10
2012,01,22,03,03,7.60
2012,01,22,03,04,6.60
2012,01,22,03,05,6.90
2012,01,22,03,06,6.70
2012,01,22,03,07,4.40
2012,01,22,03,08,7.20
2012,01,22,03,09,6.60
2012,01,22,03,10,8.00
2012,01,22,03,11,6.20
2012,01,22,03,12,6.50
2012,01,22,03,13,6.50
2012,01,22,03,14,6.40
2012,01,22,03,15,9.00
2012,01,22,03,16,6.10
2012,01,22,03,17,7.00
2012,01,22,03,18,7.60
2012,01,22,03,19,5.80
2012,01,22,03,20,6.70
2012,01,22,03,21,3.30
2012,01,22,03,22,3.20
2012,01,22,03,23,5.50
2012,01,22,03,24,9.20
2012,01,22,03,25,8.50
2012,01,22,03,26,7.70
2012,01,22,03,27,9.60
2012,01,22,03,28,9.10
2012,01,22,03,29,10.30
2012,01,22,03,30,9.20
2012,01,22,03,31,11.60
2012,01,22,03,32,17.40
2012,01,22,03,33,11.80
2012,01,22,03,34,9.40
2012,01,22,03,35,11.70
2012,01,22,03,36,12.40
2012,01,22,03,37,11.40
2012,01,22,03,38,9.30
2012,01,22,03,39,9.70
2012,01,22,03,40,9.70
2012,01,22,03,41,9.80
2012,01,22,03,42,9.20
2012,01,22,03,43,13.90
2012,01,22,03,44,10.50
2012,01,22,03,45,10.40
2012,01,22,03,46,12.40
2012,01,22,03,47,7.90
2012,01,22,03,48,12.30
2012,01,22,03,49,13.90
2012,01,22,03,50,11.90
2012,01,22,03,51,11.20
2012,01,22,03,52,8.20
2012,01,22,03,53,9.70
2012,01,22,03,54,9.80
2012,01,22,03,55,15.80
2012,01,22,03,56,13.60
2012,01,22,03,57,12.30
2012,01,22,03,58,12.60
2012,01,22,03,59,14.60
2012,01,22,04,00,14.60
2012,01,22,04,01,7.30
2012,01,22,04,02,9.70
2012,01,22,04,03,15.80
2012,01,22,04,04,10.60
2012,01,22,04,05,14.10
2012,01,22,04,06,13.20
2012,01,22,04,07,13.60
2012,01,22,04,08,11.50
2012,01,22,04,09,12.60
2012,01,22,04,10,11.50
2012,01,22,04,11,11.10
2012,01,22,04,12,10.50
2012,01,22,04,13,8.40
2012,01,22,04,14,11.00
2012,01,22,04,15,11.30
2012,01,22,04,16,8.20
2012,01,22,04,17,8.60
2012,01,22,04,18,16.50
2012,01,22,04,19,14.70
2012,01,22,04,20,10.60
2012,01,22,04,21,18.10
2012,01,22,04,22,11.70
2012,01,22,04,23,14.30
2012,01,22,04,24,9.60
2012,01,22,04,25,8.90
2012,01,22,04,26,11.70
2012,01,22,04,27,13.30
2012,01,22,04,28,14.20
2012,01,22,04,29,14.40
2012,01,22,04,30,13.20
2012,01,22,04,31,11.70
2012,01,22,04,32,14.60
2012,01,22,04,33,9.00
2012,01,22,04,34,12.70
2012,01,22,04,35,13.90
2012,01,22,04,36,17.50
2012,01,22,04,37,15.30
2012,01,22,04,38,12.20
2012,01,22,04,39,13.80
2012,01,22,04,40,18.30
2012,01,22,04,41,15.40
2012,01,22,04,42,14.20
2012,01,22,04,43,15.50
2012,01,22,04,44,13.80
2012,01,22,04,45,16.30
2012,01,22,04,46,16.10
2012,01,22,04,47,16.30
2012,01,22,04,48,10.90
2012,01,22,04,49,19.80
2012,01,22,04,50,21.10
2012,01,22,04,51,13.10
2012,01,22,04,52,11.60
2012,01,22,04,53,14.70
2012,01,22,04,54,13.20
2012,01,22,04,55,11.40
2012,01,22,04,56,10.80
2012,01,22,04,57,11.20
2012,01,22,04,58,12.40
2012,01,22,04,59,15.00
2012,01,22,05,00,20.50
2012,01,22,05,01,14.80
2012,01,22,05,02,11.00
2012,01,22,05,03,13.00
2012,01,22,05,04,11.70
2012,01,22,05,05,12.50
2012,01,22,05,06,17.50
2012,01,22,05,07,17.50
2012,01,22,05,08,10.00
2012,01,22,05,09,18.00
2012,01,22,05,10,17.50
2012,01,22,05,11,14.50
2012,01,22,05,12,9.60
2012,01,22,05,13,14.20
2012,01,22,05,14,13.60
2012,01,22,05,15,12.00
2012,01,22,05,16,12.30
2012,01,22,05,17,15.80
2012,01,22,05,18,16.60
2012,01,22,05,19,12.50
2012,01,22,05,20,13.80
2012,01,22,05,21,13.20
2012,01,22,05,22,13.80
2012,01,22,05,23,11.20
2012,01,22,05,24,10.80
2012,01,22,05,25,9.90
2012,01,22,05,26,11.10
2012,01,22,05,27,13.00
2012,01,22,05,28,10.60
2012,01,22,05,29,10.50
2012,01,22,05,30,9.30
2012,01,22,05,31,10.10
2012,01,22,05,32,11.30
2012,01,22,05,33,9.80
2012,01,22,05,34,8.20
2012,01,22,05,35,11.30
2012,01,22,05,36,9.50
2012,01,22,05,37,12.80
2012,01,22,05,38,14.60
2012,01,22,05,39,9.50
2012,01,22,05,40,9.40
2012,01,22,05,41,10.20
2012,01,22,05,42,8.20
2012,01,22,05,43,11.90
2012,01,22,05,44,9.00
2012,01,22,05,45,10.30
2012,01,22,05,46,13.80
2012,01,22,05,47,14.80
2012,01,22,05,48,11.10
2012,01,22,05,49,12.00
2012,01,22,05,50,13.00
2012,01,22,05,51,12.60
2012,01,22,05,52,13.50
2012,01,22,05,53,16.70
2012,01,22,05,54,19.70
2012,01,22,05,55,14.60
2012,01,22,05,56,19.00
2012,01,22,05,57,19.20
2012,01,22,05,58,17.50
2012,01,22,05,59,19.20
2012,01,22,06,00,16.20
2012,01,22,06,01,18.20
2012,01,22,06,02,18.30
2012,01,22,06,03,14.80
2012,01,22,06,04,20.30
2012,01,22,06,05,12.90
2012,01,22,06,06,11.20
2012,01,22,06,07,12.50
2012,01,22,06,08,20.50
2012,01,22,06,09,14.30
2012,01,22,06,10,15.90
2012,01,22,06,11,17.50
2012,01,22,06,12,12.00
2012,01,22,06,13,15.30
2012,01,22,06,14,16.30
2012,01,22,06,15,14.20
2012,01,22,06,16,14.30
2012,01,22,06,17,15.30
2012,01,22,06,18,14.30
2012,01,22,06,19,21.20
2012,01,22,06,20,16.30
2012,01,22,06,21,15.20
2012,01,22,06,22,14.20
2012,01,22,06,23,23.20
2012,01,22,06,24,20.50
2012,01,22,06,25,15.20
2012,01,22,06,26,18.40
2012,01,22,06,27,15.40
2012,01,22,06,28,17.90
2012,01,22,06,29,15.00
2012,01,22,06,30,16.30
2012,01,22,06,31,14.40
2012,01,22,06,32,13.10
2012,01,22,06,33,17.20
2012,01,22,06,34,22.40
2012,01,22,06,35,18.80
2012,01,22,06,36,15.80
2012,01,22,06,37,20.50
2012,01,22,06,38,23.00
2012,01,22,06,39,22.00
2012,01,22,06,40,15.90
2012,01,22,06,41,20.30
2012,01,22,06,42,20.00
2012,01,22,06,43,22.10
2012,01,22,06,44,22.80
2012,01,22,06,45,19.80
2012,01,22,06,46,19.30
2012,01,22,06,47,22.90
2012,01,22,06,48,15.00
2012,01,22,06,49,19.20
2012,01,22,06,50,15.00
2012,01,22,06,51,18.20
2012,01,22,06,52,20.90
2012,01,22,06,53,18.00
2012,01,22,06,54,20.00
2012,01,22,06,55,20.80
2012,01,22,06,56,14.40
2012,01,22,06,57,18.00
2012,01,22,06,58,20.10
2012,01,22,06,59,19.80
2012,01,22,07,00,21.30
2012,01,22,07,01,17.50
2012,01,22,07,02,18.20
2012,01,22,07,03,20.40
2012,01,22,07,04,20.00
2012,01,22,07,05,20.40
2012,01,22,07,06,24.80
2012,01,22,07,07,21.50
2012,01,22,07,08,20.70
2012,01,22,07,09,22.30
2012,01,22,07,10,19.40
2012,01,22,07,11,19.40
2012,01,22,07,12,17.60
2012,01,22,07,13,21.20
2012,01,22,07,14,16.40
2012,01,22,07,15,18.20
2012,01,22,07,16,15.00
2012,01,22,07,17,20.80
2012,01,22,07,18,31.40
2012,01,22,07,19,23.30
2012,01,22,07,20,25.70
2012,01,22,07,21,21.60
2012,01,22,07,22,25.30
2012,01,22,07,23,22.50
2012,01,22,07,24,22.00
2012,01,22,07,25,28.40
2012,01,22,07,26,18.80
2012,01,22,07,27,26.30
2012,01,22,07,28,29.00
2012,01,22,07,29,30.30
2012,01,22,07,30,20.60
2012,01,22,07,31,27.80
2012,01,22,07,32,26.10
2012,01,22,07,33,26.10
2012,01,22,07,34,21.90
2012,01,22,07,35,21.40
2012,01,22,07,36,22.90
2012,01,22,07,37,24.20
2012,01,22,07,38,23.80
2012,01,22,07,39,20.40
2012,01,22,07,40,23.90
2012,01,22,07,41,27.30
2012,01,22,07,42,29.10
2012,01,22,07,43,29.00
2012,01,22,07,44,21.50
2012,01,22,07,45,19.60
2012,01,22,07,46,28.00
2012,01,22,07,47,23.70
2012,01,22,07,48,20.20
2012,01,22,07,49,21.10
2012,01,22,07,50,28.20
2012,01,22,07,51,21.40
2012,01,22,07,52,21.20
2012,01,22,07,53,24.70
2012,01,22,07,54,22.40
2012,01,22,07,55,17.80
2012,01,22,07,56,20.40
2012,01,22,07,57,20.20
2012,01,22,07,58,22.50
2012,01,22,07,59,20.40
2012,01,22,08,00,25.20
2012,01,22,08,01,27.30
2012,01,22,08,02,25.60
2012,01,22,08,03,21.40
2012,01,22,08,04,23.90
2012,01,22,08,05,25.90
2012,01,22,08,06,29.30
2012,01,22,08,07,24.00
2012,01,22,08,08,18.50
2012,01,22,08,09,20.70
2012,01,22,08,10,19.80
2012,01,22,08,11,19.90
2012,01,22,08,12,20.50
2012,01,22,08,13,23.70
2012,01,22,08,14,23.70
2012,01,22,08,15,23.50
2012,01,22,08,16,32.40
2012,01,22,08,17,28.40
2012,01,22,08,18,23.90
2012,01,22,08,19,21.50
2012,01,22,08,20,28.20
2012,01,22,08,21,21.50
2012,01,22,08,22,25.90
2012,01,22,08,23,31.30
2012,01,22,08,24,28.90
2012,01,22,08,25,26.40
2012,01,22,08,26,27.00
2012,01,22,08,27,29.20
2012,01,22,08,28,25.10
2012,01,22,08,29,20.20
2012,01,22,08,30,19.90
2012,01,22,08,31,20.00
2012,01,22,08,32,21.80
2012,01,22,08,33,22.00
2012,01,22,08,34,19.90
2012,01,22,08,35,19.60
2012,01,22,08,36,29.80
2012,01,22,08,37,27.40
2012,01,22,08,38,25.80
2012,01,22,08,39,20.60
2012,01,22,08,40,30.30
2012,01,22,08,41,25.60
2012,01,22,08,42,22.70
2012,01,22,08,43,24.30
2012,01,22,08,44,23.50
2012,01,22,08,45,24.20
2012,01,22,08,46,24.50
2012,01,22,08,47,22.30
2012,01,22,08,48,27.00
2012,01,22,08,49,26.50
2012,01,22,08,50,27.00
2012,01,22,08,51,20.50
2012,01,22,08,52,26.10
2012,01,22,08,53,20.30
2012,01,22,08,54,25.60
2012,01,22,08,55,24.20
2012,01,22,08,56,20.60
2012,01,22,08,57,17.60
2012,01,22,08,58,23.50
2012,01,22,08,59,19.10
2012,01,22,09,00,19.10
2012,01,22,09,01,20.00
2012,01,22,09,02,17.20
2012,01,22,09,03,21.30
2012,01,22,09,04,24.70
2012,01,22,09,05,25.90
2012,01,22,09,06,22.50
2012,01,22,09,07,20.40
2012,01,22,09,08,25.90
2012,01,22,09,09,21.90
2012,01,22,09,10,17.20
2012,01,22,09,11,24.60
2012,01,22,09,12,19.30
2012,01,22,09,13,17.50
2012,01,22,09,14,20.20
2012,01,22,09,15,18.60
2012,01,22,09,16,24.70
2012,01,22,09,17,19.60
2012,01,22,09,18,23.00
2012,01,22,09,19,20.90
2012,01,22,09,20,21.20
2012,01,22,09,21,21.80
2012,01,22,09,22,16.90
2012,01,22,09,23,22.90
2012,01,22,09,24,22.00
2012,01,22,09,25,21.00
2012,01,22,09,26,24.60
2012,01,22,09,27,24.10
2012,01,22,09,28,23.80
2012,01,22,09,29,21.90
2012,01,22,09,30,19.90
2012,01,22,09,31,19.40
2012,01,22,09,32,22.90
2012,01,22,09,33,23.50
2012,01,22,09,34,16.90
2012,01,22,09,35,21.10
2012,01,22,09,36,20.40
2012,01,22,09,37,23.90
2012,01,22,09,38,29.90
2012,01,22,09,39,26.80
2012,01,22,09,40,20.70
2012,01,22,09,41,25.90
2012,01,22,09,42,22.00
2012,01,22,09,43,24.80
2012,01,22,09,44,21.00
2012,01,22,09,45,25.60
2012,01,22,09,46,26.50
2012,01,22,09,47,24.90
2012,01,22,09,48,20.50
2012,01,22,09,49,22.60
2012,01,22,09,50,23.70
2012,01,22,09,51,30.10
2012,01,22,09,52,26.10
2012,01,22,09,53,23.70
2012,01,22,09,54,21.90
2012,01,22,09,55,25.20
2012,01,22,09,56,26.90
2012,01,22,09,57,21.70
2012,01,22,09,58,22.00
2012,01,22,09,59,17.10
2012,01,22,10,00,25.60
2012,01,22,10,01,24.80
2012,01,22,10,02,19.40
2012,01,22,10,03,20.40
2012,01,22,10,04,23.00
2012,01,22,10,05,17.90
2012,01,22,10,06,22.60
2012,01,22,10,07,21.60
2012,01,22,10,08,27.00
2012,01,22,10,09,22.00
2012,01,22,10,10,20.50
2012,01,22,10,11,22.90
2012,01,22,10,12,17.50
2012,01,22,10,13,26.70
2012,01,22,10,14,20.80
2012,01,22,10,15,25.50
2012,01,22,10,16,21.30
2012,01,22,10,17,22.70
2012,01,22,10,18,22.50
2012,01,22,10,19,22.50
2012,01,22,10,20,21.90
2012,01,22,10,21,25.10
2012,01,22,10,22,27.10
2012,01,22,10,23,27.30
2012,01,22,10,24,12.30
2012,01,22,10,25,16.30
2012,01,22,10,26,22.90
2012,01,22,10,27,17.80
2012,01,22,10,28,22.90
2012,01,22,10,29,23.50
2012,01,22,10,30,27.30
2012,01,22,10,31,26.90
2012,01,22,10,32,21.90
2012,01,22,10,33,26.40
2012,01,22,10,34,26.70
2012,01,22,10,35,25.80
2012,01,22,10,36,30.20
2012,01,22,10,37,20.20
2012,01,22,10,38,28.90
2012,01,22,10,39,30.50
2012,01,22,10,40,35.20
2012,01,22,10,41,30.30
2012,01,22,10,42,26.60
2012,01,22,10,43,29.00
2012,01,22,10,44,31.80
2012,01,22,10,45,31.90
2012,01,22,10,46,27.00
2012,01,22,10,47,30.60
2012,01,22,10,48,29.40
2012,01,22,10,49,24.30
2012,01,22,10,50,27.30
2012,01,22,10,51,25.20
2012,01,22,10,52,27.10
2012,01,22,10,53,19.80
2012,01,22,10,54,31.70
2012,01,22,10,55,21.30
2012,01,22,10,56,25.30
2012,01,22,10,57,32.80
2012,01,22,10,58,31.50
2012,01,22,10,59,32.80
2012,01,22,11,00,23.90
2012,01,22,11,01,23.50
2012,01,22,11,02,22.70
2012,01,22,11,03,20.30
2012,01,22,11,04,28.40
2012,01,22,11,05,25.70
2012,01,22,11,06,25.20
2012,01,22,11,07,24.10
2012,01,22,11,08,29.40
2012,01,22,11,09,28.60
2012,01,22,11,10,26.60
2012,01,22,11,11,24.50
2012,01,22,11,12,26.20
2012,01,22,11,13,27.40
2012,01,22,11,14,31.10
2012,01,22,11,15,30.20
2012,01,22,11,16,22.10
2012,01,22,11,17,30.30
2012,01,22,11,18,30.30
2012,01,22,11,19,39.00
2012,01,22,11,20,28.70
2012,01,22,11,21,33.30
2012,01,22,11,22,25.10
2012,01,22,11,23,30.90
2012,01,22,11,24,32.40
2012,01,22,11,25,28.70
2012,01,22,11,26,36.70
2012,01,22,11,27,29.70
2012,01,22,11,28,34.50
2012,01,22,11,29,29.70
2012,01,22,11,30,42.00
2012,01,22,11,31,36.90
2012,01,22,11,32,33.80
2012,01,22,11,33,38.50
2012,01,22,11,34,33.40
2012,01,22,11,35,35.50
2012,01,22,11,36,32.50
2012,01,22,11,37,30.10
2012,01,22,11,38,33.40
2012,01,22,11,39,26.20
2012,01,22,11,40,33.70
2012,01,22,11,41,28.60
2012,01,22,11,42,26.70
2012,01,22,11,43,29.90
2012,01,22,11,44,32.20
2012,01,22,11,45,29.70
2012,01,22,11,46,29.90
2012,01,22,11,47,26.20
2012,01,22,11,48,34.80
2012,01,22,11,49,41.90
2012,01,22,11,50,29.90
2012,01,22,11,51,33.40
2012,01,22,11,52,29.70
2012,01,22,11,53,34.60
2012,01,22,11,54,31.20
2012,01,22,11,55,33.40
2012,01,22,11,56,30.30
2012,01,22,11,57,27.40
2012,01,22,11,58,41.50
2012,01,22,11,59,26.10
2012,01,22,12,00,27.10
2012,01,22,12,01,34.60
2012,01,22,12,02,29.10
2012,01,22,12,03,30.30
2012,01,22,12,04,33.20
2012,01,22,12,05,30.40
2012,01,22,12,06,39.20
2012,01,22,12,07,35.80
2012,01,22,12,08,30.10
2012,01,22,12,09,31.80
2012,01,22,12,10,28.40
2012,01,22,12,11,24.90
2012,01,22,12,12,29.00
2012,01,22,12,13,22.00
2012,01,22,12,14,22.90
2012,01,22,12,15,27.00
2012,01,22,12,16,26.70
2012,01,22,12,17,28.10
2012,01,22,12,18,27.20
2012,01,22,12,19,21.60
2012,01,22,12,20,20.80
2012,01,22,12,21,23.80
2012,01,22,12,22,26.70
2012,01,22,12,23,22.90
2012,01,22,12,24,18.90
2012,01,22,12,25,26.40
2012,01,22,12,26,25.80
2012,01,22,12,27,24.50
2012,01,22,12,28,26.20
2012,01,22,12,29,29.90
2012,01,22,12,30,31.50
2012,01,22,12,31,32.40
2012,01,22,12,32,31.70
2012,01,22,12,33,29.10
2012,01,22,12,34,27.20
2012,01,22,12,35,25.00
2012,01,22,12,36,27.10
2012,01,22,12,37,31.40
2012,01,22,12,38,30.50
2012,01,22,12,39,27.90
2012,01,22,12,40,27.00
2012,01,22,12,41,26.70
2012,01,22,12,42,25.20
2012,01,22,12,43,28.90
2012,01,22,12,44,21.50
2012,01,22,12,45,21.90
2012,01,22,12,46,23.70
2012,01,22,12,47,37.30
2012,01,22,12,48,28.60
2012,01,22,12,49,27.20
2012,01,22,12,50,31.20
2012,01,22,12,51,34.80
2012,01,22,12,52,25.20
2012,01,22,12,53,26.80
2012,01,22,12,54,34.80
2012,01,22,12,55,25.60
2012,01,22,12,56,26.00
2012,01,22,12,57,22.40
2012,01,22,12,58,20.30
2012,01,22,12,59,21.80
2012,01,22,13,00,23.90
2012,01,22,13,01,27.40
2012,01,22,13,02,22.90
2012,01,22,13,03,26.30
2012,01,22,13,04,23.60
2012,01,22,13,05,31.00
2012,01,22,13,06,28.00
2012,01,22,13,07,22.10
2012,01,22,13,08,30.60
2012,01,22,13,09,30.80
2012,01,22,13,10,25.90
2012,01,22,13,11,27.40
2012,01,22,13,12,23.20
2012,01,22,13,13,24.50
2012,01,22,13,14,24.50
2012,01,22,13,15,27.10
2012,01,22,13,16,20.00
2012,01,22,13,17,23.90
2012,01,22,13,18,21.60
2012,01,22,13,19,33.90
2012,01,22,13,20,29.90
2012,01,22,13,21,25.50
2012,01,22,13,22,20.00
2012,01,22,13,23,23.90
2012,01,22,13,24,20.50
2012,01,22,13,25,20.80
2012,01,22,13,26,32.50
2012,01,22,13,27,32.00
2012,01,22,13,28,30.10
2012,01,22,13,29,26.60
2012,01,22,13,30,20.80
2012,01,22,13,31,28.30
2012,01,22,13,32,19.60
2012,01,22,13,33,22.40
2012,01,22,13,34,29.00
2012,01,22,13,35,22.20
2012,01,22,13,36,22.90
2012,01,22,13,37,26.40
2012,01,22,13,38,27.10
2012,01,22,13,39,24.90
2012,01,22,13,40,27.20
2012,01,22,13,41,27.40
2012,01,22,13,42,28.00
2012,01,22,13,43,16.00
2012,01,22,13,44,25.90
2012,01,22,13,45,22.40
2012,01,22,13,46,25.30
2012,01,22,13,47,33.30
2012,01,22,13,48,30.70
2012,01,22,13,49,32.80
2012,01,22,13,50,31.90
2012,01,22,13,51,24.50
2012,01,22,13,52,31.80
2012,01,22,13,53,28.80
2012,01,22,13,54,30.50
2012,01,22,13,55,29.10
2012,01,22,13,56,30.80
2012,01,22,13,57,28.00
2012,01,22,13,58,31.60
2012,01,22,13,59,33.80
2012,01,22,14,00,24.20
2012,01,22,14,01,27.00
2012,01,22,14,02,28.00
2012,01,22,14,03,24.00
2012,01,22,14,04,19.70
2012,01,22,14,05,25.90
2012,01,22,14,06,23.50
2012,01,22,14,07,22.70
2012,01,22,14,08,22.90
2012,01,22,14,09,24.40
2012,01,22,14,10,21.00
2012,01,22,14,11,19.70
2012,01,22,14,12,25.70
2012,01,22,14,13,22.70
2012,01,22,14,14,17.10
2012,01,22,14,15,20.00
2012,01,22,14,16,18.90
2012,01,22,14,17,17.90
2012,01,22,14,18,14.40
2012,01,22,14,19,13.00
2012,01,22,14,20,13.70
2012,01,22,14,21,15.20
2012,01,22,14,22,18.80
2012,01,22,14,23,13.70
2012,01,22,14,24,13.70
2012,01,22,14,25,19.20
2012,01,22,14,26,15.80
2012,01,22,14,27,22.30
2012,01,22,14,28,19.50
2012,01,22,14,29,14.20
2012,01,22,14,30,18.70
2012,01,22,14,31,21.20
2012,01,22,14,32,20.60
2012,01,22,14,33,18.30
2012,01,22,14,34,15.10
2012,01,22,14,35,16.50
2012,01,22,14,36,16.70
2012,01,22,14,37,13.10
2012,01,22,14,38,16.40
2012,01,22,14,39,13.90
2012,01,22,14,40,17.90
2012,01,22,14,41,19.80
2012,01,22,14,42,14.60
2012,01,22,14,43,13.50
2012,01,22,14,44,24.60
2012,01,22,14,45,16.40
2012,01,22,14,46,16.40
2012,01,22,14,47,16.50
2012,01,22,14,48,24.40
2012,01,22,14,49,19.10
2012,01,22,14,50,14.60
2012,01,22,14,51,15.90
2012,01,22,14,52,15.00
2012,01,22,14,53,21.90
2012,01,22,14,54,18.40
2012,01,22,14,55,13.90
2012,01,22,14,56,9.70
2012,01,22,14,57,10.30
2012,01,22,14,58,21.80
2012,01,22,14,59,21.90
2012,01,22,15,00,18.00
2012,01,22,15,01,18.60
2012,01,22,15,02,18.90
2012,01,22,15,03,20.40
2012,01,22,15,04,17.00
2012,01,22,15,05,17.20
2012,01,22,15,06,16.50
2012,01,22,15,07,16.50
2012,01,22,15,08,12.70
2012,01,22,15,09,15.80
2012,01,22,15,10,15.00
2012,01,22,15,11,19.50
2012,01,22,15,12,10.00
2012,01,22,15,13,23.50
2012,01,22,15,14,19.80
2012,01,22,15,15,11.00
2012,01,22,15,16,11.20
2012,01,22,15,17,14.00
2012,01,22,15,18,14.10
2012,01,22,15,19,16.40
2012,01,22,15,20,18.40
2012,01,22,15,21,21.90
2012,01,22,15,22,21.20
2012,01,22,15,23,18.70
2012,01,22,15,24,19.20
2012,01,22,15,25,18.30
2012,01,22,15,26,19.70
2012,01,22,15,27,29.00
2012,01,22,15,28,25.70
2012,01,22,15,29,24.70
2012,01,22,15,30,26.20
2012,01,22,15,31,21.40
2012,01,22,15,32,21.50
2012,01,22,15,33,25.30
2012,01,22,15,34,20.80
2012,01,22,15,35,21.70
2012,01,22,15,36,26.40
2012,01,22,15,37,18.90
2012,01,22,15,38,12.60
2012,01,22,15,39,13.30
2012,01,22,15,40,18.80
2012,01,22,15,41,10.20
2012,01,22,15,42,7.50
2012,01,22,15,43,10.30
2012,01,22,15,44,8.60
2012,01,22,15,45,5.90
2012,01,22,15,46,10.50
2012,01,22,15,47,13.40
2012,01,22,15,48,7.80
2012,01,22,15,49,19.80
2012,01,22,15,50,13.60
2012,01,22,15,51,10.70
2012,01,22,15,52,10.40
2012,01,22,15,53,18.70
2012,01,22,15,54,15.60
2012,01,22,15,55,19.30
2012,01,22,15,56,16.80
2012,01,22,15,57,13.40
2012,01,22,15,58,13.00
2012,01,22,15,59,12.80
2012,01,22,16,00,16.80
2012,01,22,16,01,10.90
2012,01,22,16,02,9.80
2012,01,22,16,03,13.00
2012,01,22,16,04,10.60
2012,01,22,16,05,11.70
2012,01,22,16,06,15.90
2012,01,22,16,07,18.20
2012,01,22,16,08,18.00
2012,01,22,16,09,19.50
2012,01,22,16,10,15.50
2012,01,22,16,11,13.80
2012,01,22,16,12,12.50
2012,01,22,16,13,12.90
2012,01,22,16,14,17.50
2012,01,22,16,15,16.30
2012,01,22,16,16,12.80
2012,01,22,16,17,16.10
2012,01,22,16,18,14.60
2012,01,22,16,19,15.60
2012,01,22,16,20,11.50
2012,01,22,16,21,13.00
2012,01,22,16,22,8.50
2012,01,22,16,23,8.10
2012,01,22,16,24,9.40
2012,01,22,16,25,12.40
2012,01,22,16,26,12.80
2012,01,22,16,27,21.20
2012,01,22,16,28,19.50
2012,01,22,16,29,16.80
2012,01,22,16,30,13.80
2012,01,22,16,31,16.80
2012,01,22,16,32,15.20
2012,01,22,16,33,13.00
2012,01,22,16,34,13.10
2012,01,22,16,35,17.70
2012,01,22,16,36,17.40
2012,01,22,16,37,15.10
2012,01,22,16,38,12.00
2012,01,22,16,39,15.10
2012,01,22,16,40,16.90
2012,01,22,16,41,10.60
2012,01,22,16,42,8.60
2012,01,22,16,43,6.80
2012,01,22,16,44,15.20
2012,01,22,16,45,14.10
2012,01,22,16,46,10.00
2012,01,22,16,47,11.60
2012,01,22,16,48,6.60
2012,01,22,16,49,13.00
2012,01,22,16,50,14.90
2012,01,22,16,51,14.30
2012,01,22,16,52,11.80
2012,01,22,16,53,17.30
2012,01,22,16,54,12.90
2012,01,22,16,55,16.90
2012,01,22,16,56,13.30
2012,01,22,16,57,13.90
2012,01,22,16,58,16.50
2012,01,22,16,59,17.90
2012,01,22,17,00,16.30
2012,01,22,17,01,17.50
2012,01,22,17,02,18.40
2012,01,22,17,03,8.30
2012,01,22,17,04,9.30
2012,01,22,17,05,7.80
2012,01,22,17,06,5.60
2012,01,22,17,07,8.50
2012,01,22,17,08,6.40
2012,01,22,17,09,7.20
2012,01,22,17,10,11.00
2012,01,22,17,11,15.70
2012,01,22,17,12,14.40
2012,01,22,17,13,13.10
2012,01,22,17,14,14.50
2012,01,22,17,15,15.20
2012,01,22,17,16,9.70
2012,01,22,17,17,10.50
2012,01,22,17,18,12.60
2012,01,22,17,19,4.90
2012,01,22,17,20,4.40
2012,01,22,17,21,9.30
2012,01,22,17,22,17.30
2012,01,22,17,23,14.90
2012,01,22,17,24,14.70
2012,01,22,17,25,10.10
2012,01,22,17,26,9.40
2012,01,22,17,27,7.20
2012,01,22,17,28,11.30